Retour au catalogue

STARLINK-3343

ActifCommunicationsVLEO
NORAD 50822·PAYLOAD·🇺🇸 United States

Lancé Jan 6, 2022 depuis Cape Canaveral Space Force Station

Loading…

Prochains Passages (prochaines 24 heures)

TLE

FraisSource: CelesTrak SupGP

Époque: Sep 14, 2026, 20:49 UTC

1 50822C 22001V   26257.86784722  .00038041  00000+0  12233-2 0  2573
2 50822  53.1601  29.9948 0001085  75.3780  47.0451 15.31684432    19

Suivez STARLINK-3343 en temps réel avec AllMySat

Download on the App Store